Location: Baturyn
(53.6332°N, 113.5041°W)
Time: 03:19:47
(UTC+00:00)

N. Korean satellite - Pass Details

Date: 08 December 2021
Orbit: 446 x 492 km, 97.3° (Epoch: 16 January)

Event Time Altitude Azimuth Distance (km) Brightness Sun altitude
Rises 13:45:29 0° 6° (N) 2,470 10.0 -15.4°
Reaches altitude 10° 13:47:40 10° 356° (N) 1,590 9.0 -15.1°
Maximum altitude 13:50:42 31° 293° (WNW) 817 7.1 -14.7°
Drops below altitude 10° 13:53:43 10° 230° (SW) 1,576 8.9 -14.2°
Sets 13:55:52 0° 219° (SW) 2,445 9.9 -13.9°
